Date String (YYYY-MM-DD hh:mm:ss) UTC,Instrument flags,absolute air pressure of the measurement (hPa),sample flow rate (lpm),inlet stack bypass flow (lpm),air temperature of the measurement (°C),ambient temperature measured by the external sensor (°C),aerosol sample conditioner tube jacket temperature (°C),OPC LED temperature (°C),internal box temperature (°C),relative humidity of the measurement (%),span deviation,mass concentration of particles derived from Lorenz-Mie calculation of OPC scattering (μg/m³),mass concentration of particles derived from Lorenz-Mie calculation of OPC scattering (μg/m³),mass concentration of particles derived from Lorenz-Mie calculation of OPC scattering (μg/m³)
DateTimeUTC,F1_M11,P_M11,Q1_M11,Q2_M11,T1_M11,T2_M11,T3_M11,T4_M11,T5_M11,U1_M11,ZSPAN_M11,X2_M11,X0_M11,X1_M11
2023-08-07 02:00:00,SystemResetWarning,0837.7,5.00,000.00,029.5,027.9,000.0,038.2,031.1,33.2,0000.2,0008.03,0010.40,0007.65
2023-08-07 02:01:00,SystemResetWarning,0837.6,5.00,000.00,029.5,028.0,000.0,038.2,031.1,33.4,0000.2,0008.02,0010.43,0007.64
2023-08-07 02:02:00,SystemResetWarning,0837.4,5.01,000.00,029.6,028.1,000.0,038.2,031.2,33.1,0000.5,0008.00,0010.84,0007.64
2023-08-07 02:03:00,SystemResetWarning,0837.2,5.00,000.00,029.6,028.2,000.0,038.2,031.2,32.5,0000.2,0008.00,0010.86,0007.63
2023-08-07 02:04:00,SystemResetWarning,0837.1,5.00,000.00,029.6,028.3,000.0,038.2,031.2,32.2,-000.1,0008.05,0011.07,0007.63
2023-08-07 02:05:00,SystemResetWarning,0836.8,4.98,000.00,029.6,028.3,000.0,038.2,031.2,31.7,-000.3,0008.08,0011.69,0007.63
2023-08-07 02:06:00,SystemResetWarning,0836.5,5.00,000.00,029.7,028.4,000.0,038.2,031.3,30.9,-000.4,0008.08,0011.71,0007.62
2023-08-07 02:07:00,SystemResetWarning,0836.2,5.00,000.00,029.7,028.4,000.0,038.2,031.3,30.7,-000.6,0008.10,0011.74,0007.63
2023-08-07 02:08:00,SystemResetWarning,0835.9,5.01,000.00,029.7,028.5,000.0,038.2,031.3,31.8,-000.7,0008.11,0011.75,0007.65
2023-08-07 02:09:00,SystemResetWarning,0835.7,5.01,000.00,029.7,028.5,000.0,038.3,031.3,32.1,-000.6,0008.11,0011.82,0007.66
2023-08-07 02:10:00,SystemResetWarning,0835.6,5.00,000.00,029.7,028.5,000.0,038.3,031.3,31.6,-000.8,0008.09,0011.84,0007.66
2023-08-07 02:11:00,SystemResetWarning,0835.7,5.00,000.00,029.8,028.6,000.0,038.3,031.4,31.0,-000.5,0008.08,0011.80,0007.65
2023-08-07 02:12:00,SystemResetWarning,0835.9,4.99,000.00,029.8,028.6,000.0,038.3,031.4,31.3,-000.6,0008.08,0011.78,0007.66
2023-08-07 02:13:00,SystemResetWarning,0836.1,4.99,000.00,029.8,028.6,000.0,038.3,031.4,32.3,-000.7,0008.10,0011.25,0007.69
2023-08-07 02:14:00,SystemResetWarning,0836.2,5.00,000.00,029.8,028.6,000.0,038.3,031.4,32.9,-000.9,0008.11,0011.23,0007.70
2023-08-07 02:15:00,SystemResetWarning,0836.3,5.00,000.00,029.8,028.6,000.0,038.3,031.4,32.9,-001.0,0008.08,0011.10,0007.71
2023-08-07 02:16:00,SystemResetWarning,0836.3,5.01,000.00,029.8,028.6,000.0,038.3,031.4,32.9,-001.1,0008.10,0010.63,0007.72
2023-08-07 02:17:00,SystemResetWarning,0836.4,5.00,000.00,029.8,028.5,000.0,038.4,031.3,32.8,-001.1,0008.11,0010.68,0007.73
2023-08-07 02:18:00,SystemResetWarning,0836.6,5.00,000.00,029.8,028.5,000.0,038.4,031.4,32.6,-001.1,0008.11,0010.65,0007.72
2023-08-07 02:19:00,SystemResetWarning,0836.7,5.00,000.00,029.8,028.5,000.0,038.4,031.4,32.9,-000.9,0008.08,0010.57,0007.71
2023-08-07 02:20:00,SystemResetWarning,0836.8,5.00,000.00,029.8,028.5,000.0,038.4,031.4,32.8,-001.0,0008.08,0010.53,0007.70
2023-08-07 02:21:00,SystemResetWarning,0837.0,5.00,000.00,029.8,028.5,000.0,038.4,031.4,32.6,-001.2,0008.10,0010.52,0007.69
2023-08-07 02:22:00,SystemResetWarning,0837.1,5.00,000.00,029.9,028.5,000.0,038.4,031.4,32.6,-001.4,0008.12,0010.60,0007.69
2023-08-07 02:23:00,SystemResetWarning,0837.2,4.99,000.00,029.9,028.5,000.0,038.4,031.4,32.6,-000.9,0008.18,0010.80,0007.68
2023-08-07 02:24:00,SystemResetWarning,0837.2,4.99,000.00,029.9,028.5,000.0,038.4,031.4,32.7,-000.7,0008.21,0010.92,0007.67
2023-08-07 02:25:00,SystemResetWarning,0837.3,5.00,000.00,029.9,028.5,000.0,038.4,031.4,32.8,-000.4,0008.22,0010.99,0007.68
2023-08-07 02:26:00,SystemResetWarning,0837.5,5.00,000.00,029.9,027.2,000.0,038.3,031.3,33.0,-000.3,0008.24,0011.13,0007.68
2023-08-07 02:27:00,SystemResetWarning,0837.5,5.00,000.00,029.8,025.7,000.0,038.2,031.0,33.3,-000.3,0008.21,0011.07,0007.68
2023-08-07 02:28:00,SystemResetWarning,0837.6,5.02,000.00,029.7,025.3,000.0,038.1,030.8,33.6,-000.5,0008.21,0011.08,0007.68
2023-08-07 02:29:00,SystemResetWarning,0837.5,5.00,000.00,029.6,025.5,000.0,038.2,030.6,33.9,-000.5,0008.22,0011.13,0007.67
2023-08-07 02:30:00,SystemResetWarning,0837.6,5.00,000.00,029.5,025.9,000.0,038.2,030.7,34.1,-000.5,0008.27,0011.92,0007.67
2023-08-07 02:31:00,SystemResetWarning,0837.5,5.01,000.00,029.4,026.3,000.0,038.2,030.8,34.1,-000.3,0008.24,0012.04,0007.65
2023-08-07 02:32:00,SystemResetWarning,0837.5,5.00,000.00,029.4,026.6,000.0,038.2,030.8,34.0,-000.1,0008.26,0012.04,0007.66
2023-08-07 02:33:00,SystemResetWarning,0837.4,4.99,000.00,029.4,026.9,000.0,038.1,030.9,33.8,0000.0,0008.25,0012.08,0007.66
2023-08-07 02:34:00,SystemResetWarning,0837.4,5.00,000.00,029.4,027.2,000.0,038.1,030.9,33.7,0000.4,0008.20,0011.94,0007.66
2023-08-07 02:35:00,SystemResetWarning,0837.3,5.01,000.00,029.4,027.4,000.0,038.1,030.9,33.6,0000.2,0008.18,0011.85,0007.66
2023-08-07 02:36:00,SystemResetWarning,0837.2,5.00,000.00,029.4,027.5,000.0,038.1,031.0,33.6,-000.2,0008.17,0011.86,0007.65
2023-08-07 02:37:00,SystemResetWarning,0837.2,5.00,000.00,029.4,027.7,000.0,038.1,031.0,33.7,-000.4,0008.14,0011.73,0007.63
2023-08-07 02:38:00,SystemResetWarning,0837.2,5.00,000.00,029.4,027.8,000.0,038.1,031.0,33.9,-000.1,0008.12,0011.62,0007.62
2023-08-07 02:39:00,SystemResetWarning,0837.2,5.00,000.00,029.5,027.9,000.0,038.1,031.0,33.8,-000.2,0008.11,0011.56,0007.61
2023-08-07 02:40:00,SystemResetWarning,0837.2,5.00,000.00,029.5,028.0,000.0,038.1,031.1,33.8,-000.4,0008.14,0011.65,0007.62
2023-08-07 02:41:00,SystemResetWarning,0837.1,4.99,000.00,029.5,028.1,000.0,038.1,031.1,33.6,-000.3,0008.09,0010.95,0007.62
2023-08-07 02:42:00,SystemResetWarning,0837.0,4.99,000.00,029.5,028.2,000.0,038.1,031.1,33.5,-000.3,0008.15,0010.89,0007.65
2023-08-07 02:43:00,SystemResetWarning,0836.9,5.00,000.00,029.5,028.2,000.0,038.1,031.1,33.3,-000.5,0008.16,0011.03,0007.66
2023-08-07 02:44:00,SystemResetWarning,0836.8,5.00,000.00,029.6,028.3,000.0,038.2,031.2,33.2,-000.4,0008.13,0010.91,0007.67
2023-08-07 02:45:00,SystemResetWarning,0836.6,5.00,000.00,029.6,028.3,000.0,038.2,031.2,33.1,-000.6,0008.16,0010.90,0007.69
2023-08-07 02:46:00,SystemResetWarning,0836.6,5.00,000.00,029.6,028.4,000.0,038.2,031.2,33.0,-000.3,0008.18,0010.93,0007.71
2023-08-07 02:47:00,SystemResetWarning,0836.8,5.00,000.00,029.6,028.4,000.0,038.2,031.2,32.8,-000.2,0008.21,0010.95,0007.74
2023-08-07 02:48:00,SystemResetWarning,0837.1,5.00,000.00,029.6,028.4,000.0,038.2,031.2,32.8,0000.1,0008.23,0010.95,0007.75
2023-08-07 02:49:00,SystemResetWarning,0837.3,5.00,000.00,029.6,028.4,000.0,038.2,031.2,32.9,-000.1,0008.24,0010.98,0007.75
2023-08-07 02:50:00,SystemResetWarning,0837.3,5.00,000.00,029.7,028.4,000.0,038.2,031.3,33.0,0000.3,0008.28,0011.33,0007.79
2023-08-07 02:51:00,SystemResetWarning,0837.2,5.00,000.00,029.7,028.4,000.0,038.2,031.3,33.1,0000.6,0008.28,0011.54,0007.81
2023-08-07 02:52:00,SystemResetWarning,0837.0,5.00,000.00,029.7,028.4,000.0,038.2,031.3,32.9,0000.6,0008.30,0011.56,0007.84
2023-08-07 02:53:00,SystemResetWarning,0836.7,5.00,000.00,029.7,028.4,000.0,038.2,031.3,32.9,0000.8,0008.31,0011.44,0007.86
2023-08-07 02:54:00,SystemResetWarning,0836.5,5.00,000.00,029.7,028.4,000.0,038.3,031.3,32.6,0000.6,0008.29,0011.28,0007.88
2023-08-07 02:55:00,SystemResetWarning,0836.3,5.00,000.00,029.7,028.4,000.0,038.3,031.3,32.5,0000.4,0008.35,0011.42,0007.91
2023-08-07 02:56:00,SystemResetWarning,0836.1,5.00,000.00,029.7,028.4,000.0,038.3,031.3,32.3,-000.0,0008.34,0011.40,0007.91
2023-08-07 02:57:00,SystemResetWarning,0835.9,5.00,000.00,029.7,028.4,000.0,038.3,031.3,32.3,-000.2,0008.30,0011.34,0007.90
2023-08-07 02:58:00,SystemResetWarning,0836.0,5.00,000.00,029.7,028.5,000.0,038.3,031.3,32.4,-000.2,0008.31,0011.39,0007.90
2023-08-07 02:59:00,SystemResetWarning,0836.3,5.00,000.00,029.8,028.5,000.0,038.3,031.3,32.7,-000.4,0008.31,0011.46,0007.90
